This is the latest recevied weather packets stored in our database for station/object OE2ATN. If no packets are shown the sender has not sent any weather packets the latest 10 day(s).
| Time | Temp. | Humidity | Pressure | Rain* | Wind** | Luminosity | Snow |
|---|---|---|---|---|---|---|---|
| 1778120735 | 8.33° C | 65% | 1018.5 hPa | 0 mm | - | - | - |
| 1778120436 | 8.33° C | 70% | 1018.6 hPa | 0 mm | - | - | - |
| 1778120135 | 8.89° C | 72% | 1018.5 hPa | 0 mm | - | - | - |
| 1778119835 | 9.44° C | 71% | 1018.4 hPa | 0 mm | - | - | - |
| 1778119535 | 9.44° C | 69% | 1018.3 hPa | 0 mm | - | - | - |
| 1778119234 | 8.89° C | 68% | 1018.1 hPa | 0 mm | - | - | - |
| 1778118934 | 8.89° C | 69% | 1018.3 hPa | 0 mm | - | - | - |
| 1778118635 | 8.89° C | 69% | 1018.3 hPa | 0 mm | - | - | - |
| 1778118334 | 8.89° C | 68% | 1018.1 hPa | 0 mm | - | - | - |
| 1778118034 | 8.89° C | 68% | 1018.1 hPa | 0 mm | - | - | - |
| 1778117735 | 8.89° C | 68% | 1018 hPa | 0 mm | - | - | - |
| 1778117434 | 9.44° C | 68% | 1018.1 hPa | 0 mm | - | - | - |
| 1778117134 | 9.44° C | 67% | 1017.9 hPa | 0 mm | - | - | - |
| 1778116834 | 9.44° C | 65% | 1017.8 hPa | 0 mm | - | - | - |
| 1778116535 | 9.44° C | 66% | 1017.9 hPa | 0 mm | - | - | - |
| 1778116235 | 9.44° C | 67% | 1017.8 hPa | 0 mm | - | - | - |
| 1778115934 | 8.89° C | 69% | 1017.9 hPa | 0 mm | - | - | - |
| 1778115635 | 8.89° C | 68% | 1017.8 hPa | 0 mm | - | - | - |
| 1778115335 | 8.89° C | 68% | 1017.9 hPa | 0 mm | - | - | - |
| 1778115035 | 8.89° C | 65% | 1017.9 hPa | 0 mm | - | - | - |
| 1778114735 | 8.33° C | 62% | 1017.9 hPa | 0 mm | - | - | - |
| 1778114434 | 8.33° C | 62% | 1017.9 hPa | 0 mm | - | - | - |
| 1778114134 | 8.33° C | 62% | 1017.9 hPa | 0 mm | - | - | - |
| 1778113834 | 8.33° C | 63% | 1018 hPa | 0 mm | - | - | - |
| 1778113534 | 8.33° C | 63% | 1018 hPa | 0 mm | - | - | - |
* Rain latest hour (hover to see other rain measurements)
** Current wind speed in m/s (hover to see current wind gust speed)